Weather History for CYYG - November, 2013

Change the Weather History Date:

Monday, November 25, 2013

  Actual Average Record
Temperature  
Mean Temperature 22 °F -  
Max Temperature 25 °F 33 °F 61 °F (2014)
Min Temperature 19 °F 19 °F 8 °F (2008)
Degree Days  
Heating Degree Days 43    
Moisture  
Dew Point 13 °F    
Average Humidity 67    
Maximum Humidity 86    
Minimum Humidity 43    
Precipitation  
Precipitation 0.00 in 0.17 in - ()
Sea Level Pressure  
Sea Level Pressure 29.81 in    
Wind  
Wind Speed 13 mph ()    
Max Wind Speed 22 mph    
Max Gust Speed 30 mph    
Visibility 10.6 miles    
Events Snow    
Averages and records for this station are not official NWS values.
T = Trace of Precipitation, MM = Missing Value Source: Averaged Metar Reports

Daily Weather History Graph

Daily Weather History Graph

Search for Another Location

Airport or City:

Trip Planner

Search our weather history database for the weather conditions in past years. The results will help you decide how hot, cold, wet, or windy it might be!

Date:

Astronomy

Nov. 25, 2013 Rise Set
Actual Time 7:27 AM AST 4:31 PM AST
Civil Twilight 6:54 AM AST 5:04 PM AST
Nautical Twilight 6:16 AM AST 5:41 PM AST
Astronomical Twilight 5:40 AM AST 6:17 PM AST
Moon No Moon Rise 12:29 PM AST (11/25)
Length of Visible Light 10h 10m
Length of Day
9h 03m
Waning Gibbous, 51% of the Moon is Illuminated
Nov 25
Waning Gibbous
Nov 25
Last Quarter
Dec 2
New
Dec 9
First Quarter
Dec 17
Full

Hourly Weather History & Observations

Time (AST) Temp. Windchill Dew Point Humidity Pressure Visibility Wind Dir Wind Speed Gust Speed Precip Events Conditions
12:00 AM 19.4 °F 5.0 °F 14.0 °F 80% 29.46 in 4.0 mi West 16.1 mph 25.3 mph N/A Snow Light Snow Showers
1:00 AM 19.4 °F 6.0 °F 15.8 °F 86% 29.47 in 4.0 mi West 13.8 mph 21.9 mph N/A Snow Light Snow Showers
2:00 AM 21 °F - 14 °F 64% 29.51 in 6 mi West 13.8 mph - - Snow Light Snow Showers
2:00 AM 21.2 °F 7.3 °F 14.0 °F 74% 29.51 in 6.0 mi West 16.1 mph 23.0 mph N/A Snow Light Snow Showers
3:00 AM 21.2 °F 5.2 °F 14.0 °F 74% 29.52 in 4.0 mi West 21.9 mph 28.8 mph N/A Snow Light Snow Showers
3:19 AM 21.2 °F 9.5 °F 15.8 °F 80% 29.54 in 2.5 mi West 11.5 mph 20.7 mph N/A Snow Light Snow Showers
4:00 AM 21.2 °F 6.4 °F 15.8 °F 80% 29.56 in 2.5 mi West 18.4 mph 28.8 mph N/A Snow Light Snow Showers
4:24 AM 21.2 °F 7.8 °F 15.8 °F 80% 29.57 in 6.0 mi West 15.0 mph 27.6 mph N/A Snow Light Snow Showers
5:00 AM 21.2 °F 8.3 °F 14.0 °F 74% 29.59 in 6.0 mi West 13.8 mph 21.9 mph N/A Snow Light Snow Showers
6:00 AM 21.2 °F 6.8 °F 14.0 °F 74% 29.62 in 10.0 mi West 17.3 mph 28.8 mph N/A Snow Light Snow Showers
7:00 AM 21.2 °F 7.3 °F 14.0 °F 74% 29.66 in 15.0 mi West 16.1 mph 27.6 mph N/A Snow Light Snow Showers
7:08 AM 21.2 °F 7.3 °F 14.0 °F 74% 29.67 in 2.0 mi West 16.1 mph 26.5 mph N/A Snow Light Snow Showers
8:00 AM 21 °F - 15 °F 70% 29.72 in 10 mi West 15.0 mph - - Snow Light Snow Showers
8:00 AM 21.2 °F 8.3 °F 15.8 °F 80% 29.72 in 10.0 mi West 13.8 mph 24.2 mph N/A Snow Light Snow Showers
9:00 AM 21.2 °F 7.8 °F 15.8 °F 80% 29.76 in 5.0 mi West 15.0 mph 21.9 mph N/A Snow Light Snow Showers
10:00 AM 23.0 °F 9.6 °F 14.0 °F 68% 29.80 in 10.0 mi West 16.1 mph 29.9 mph N/A Snow Light Snow Showers
11:00 AM 23.0 °F 9.2 °F 14.0 °F 68% 29.83 in 15.0 mi West 17.3 mph 23.0 mph N/A Snow Light Snow Showers
12:00 PM 23.0 °F 9.6 °F 12.2 °F 63% 29.87 in 15.0 mi West 16.1 mph 25.3 mph N/A Snow Light Snow Showers
1:00 PM 23.0 °F 10.6 °F 12.2 °F 63% 29.89 in 15.0 mi West 13.8 mph 20.7 mph N/A Snow Light Snow Showers
2:00 PM 25 °F - 12 °F 43% 29.92 in 15 mi West 17.3 mph - - Snow Light Snow Showers
2:00 PM 24.8 °F 11.5 °F 12.2 °F 59% 29.92 in 15.0 mi West 17.3 mph 27.6 mph N/A Snow Light Snow Showers
3:00 PM 24.8 °F 13.4 °F 12.2 °F 59% 29.96 in 15.0 mi West 12.7 mph 23.0 mph N/A Snow Light Snow Showers
4:00 PM 24.8 °F 12.9 °F 12.2 °F 59% 30.01 in 15.0 mi West 13.8 mph 19.6 mph N/A   Mostly Cloudy
5:00 PM 23.0 °F 14.7 °F 12.2 °F 63% 30.05 in 15.0 mi West 6.9 mph - N/A   Scattered Clouds
6:00 PM 23.0 °F 15.8 °F 10.4 °F 59% 30.08 in 15.0 mi WSW 5.8 mph - N/A   Partly Cloudy
7:00 PM 23.0 °F 12.4 °F 10.4 °F 59% 30.11 in 15.0 mi West 10.4 mph - N/A   Partly Cloudy
8:00 PM 23 °F - 10 °F 45% 30.14 in 15 mi West 6.9 mph - -   Partly Cloudy
8:00 PM 23.0 °F 14.7 °F 10.4 °F 59% 30.14 in 15.0 mi West 6.9 mph - N/A   Partly Cloudy
9:00 PM 21.2 °F 13.6 °F 8.6 °F 58% 30.17 in 15.0 mi West 5.8 mph - N/A   Partly Cloudy
10:00 PM 21.2 °F 12.6 °F 8.6 °F 58% 30.17 in 15.0 mi West 6.9 mph - N/A   Clear
11:00 PM 19.4 °F 11.5 °F 8.6 °F 63% 30.21 in 15.0 mi WSW 5.8 mph - N/A   Clear